STARLINK-5497 (55629 NORAD) Tracking and Keplerian Element Data

This shows tracking and keplerian element data for the satellite.

Feedback or suggestion? Click here.




ElementValue
Catalog55629
NameSTARLINK-5497
Epoch Orbit130
Epoch Day62.91667824
Epoch Year2023
RAAN110.2071
Inclination69.9997
Eccentricity0.0003604
Argument of Perigee282.5448
Mean Anonmoly306.2861
Mean Motion15.7484491
Decay Rate-0.01036692
L11 55629U 23021B 23062.91667824 -.01036692 00000+0 -77539-2 0 9992
L22 55629 69.9997 110.2071 0003604 282.5448 306.2861 15.74844910 1309



Live tracking and technical data element details for STARLINK-5497 (NORAD 55629). STARLINK-5497 can be tracked NOW for your location showing map with azimuth and elevation plus other details from your city location.







IsCatalogInMostPopularTable: catalog: 55629, numindb: 3
Update: records affected: 1



GetName: 55629 STARLINK-5497

Hit Count: updated at: Wed, 22 Mar 2023 16:11:59 GMT